[[[{"header":{"parameterUnit":"kt","parameterCategory":2,"dx":1,"dy":1,"la1":30.253999710083008,"la2":30.299108505249023,"lo1":-89.0895004272461,"lo2":-89.04439544677734,"nx":28,"ny":28,"refTime":"2022-10-06T21:00:00:Z","depth":0,"parameterNumber":1,"parameterNumberName":"U-component_of_WINDS"},"data":[2.7132,2.7284,2.7347,2.7551,2.7642,2.7792,2.7866,2.7969,2.8066,2.8254,2.8373,2.8453,2.8576,2.8734,2.8867,2.89,2.8951,2.8959,2.8996,2.8902,2.8893,2.8885,2.8851,2.897,2.897,2.9083,2.9084,2.9085,2.7058,2.7149,2.7275,2.744,2.7549,2.758,2.7714,2.7802,2.7936,2.8058,2.8179,2.8349,2.8492,2.8616,2.8764,2.8838,2.8861,2.8874,2.8868,2.8886,2.8789,2.8753,2.8853,2.8853,2.8853,2.8853,2.8853,2.8853,2.694,2.7029,2.7165,2.7303,2.7403,2.7514,2.761,2.7705,2.783,2.7992,2.8044,2.8197,2.8331,2.8542,2.8629,2.8751,2.8747,2.8781,2.879,2.8796,2.8794,2.8619,2.8779,2.8779,2.8779,2.8779,2.8779,0,2.6872,2.6918,2.7043,2.7188,2.7292,2.741,2.7529,2.7591,2.7711,2.7809,2.7957,2.8053,2.8243,2.8389,2.8543,2.8627,2.8668,2.868,2.8704,2.8678,2.8636,2.8658,2.8494,2.8674,2.8673,2.8673,2.8673,2.8672,2.6755,2.6852,2.7025,2.7105,2.7185,2.7312,2.7401,2.75,2.759,2.7752,2.7826,2.7975,2.8098,2.8326,2.8437,2.8579,2.86,2.8661,2.8621,2.8594,2.8599,2.859,2.86,2.8666,2.8667,2.8667,2.8668,0,2.6683,2.6785,2.6956,2.7118,2.7162,2.7259,2.7398,2.7492,2.7574,2.7715,2.7754,2.7884,2.8028,2.813,2.8316,2.8364,2.8527,2.8545,2.848,2.8489,2.8552,2.8544,2.8746,2.8777,2.8658,2.8659,2.866,0,2.6622,2.6746,2.6891,2.6984,2.7126,2.7221,2.7359,2.7443,2.756,2.7672,2.7735,2.7839,2.7953,2.8073,2.8145,2.8297,2.8332,2.8378,2.8395,2.8371,2.8364,2.8418,2.8411,2.8433,2.8432,2.8431,2.843,0,2.6496,2.6719,2.6873,2.694,2.7124,2.7195,2.7275,2.7406,2.7493,2.7621,2.7678,2.7822,2.79,2.8011,2.8102,2.807,2.829,2.8266,2.8336,2.8334,2.8377,2.8372,2.8529,2.8429,2.8428,2.8428,2.8428,0,2.6461,2.6588,2.6795,2.695,2.7005,2.7106,2.7252,2.7363,2.7497,2.7549,2.7651,2.7704,2.7846,2.7814,2.8011,2.7944,2.8018,2.8075,2.8082,2.8098,2.8059,2.813,2.8271,2.8288,2.8117,2.8114,2.8112,0,2.6288,2.6524,2.6607,2.6802,2.6924,2.6985,2.71,2.7216,2.7295,2.7411,2.7499,2.7631,2.7629,2.7684,2.7769,2.7864,2.7951,2.7856,2.8022,2.8027,2.7981,2.8113,2.8106,2.823,2.8081,2.8084,2.8086,0,2.6165,2.6388,2.6416,2.6496,2.6665,2.6768,2.6901,2.7052,2.7124,2.7249,2.7362,2.7552,2.7558,2.7649,2.7707,2.7789,2.7895,2.7784,2.7789,2.7799,2.8074,2.8067,2.8087,2.7916,2.792,2.7924,2.8061,0,2.6086,2.6217,2.63,2.6474,2.657,2.6698,2.6804,2.6891,2.6936,2.7015,2.7184,2.7307,2.7462,2.7513,2.7559,2.7715,2.7704,2.7709,2.7683,2.7769,2.7817,2.7837,2.7603,2.7603,2.7603,2.7603,0,0,2.5893,2.6083,2.6168,2.6299,2.6385,2.6444,2.6571,2.6663,2.6844,2.6903,2.689,2.7173,2.7273,2.7467,2.7503,2.7566,2.7604,2.7569,2.7728,2.7741,2.7754,2.7804,2.7822,2.7603,2.7603,2.7603,2.7603,0,2.5885,2.5984,2.6108,2.6206,2.6354,2.6431,2.6461,2.6617,2.6674,2.684,2.6886,2.7001,2.7225,2.7324,2.7404,2.7549,2.7577,2.7589,2.763,2.7724,2.7737,2.7749,2.78,2.7817,2.7602,2.7602,2.7602,0,2.5781,2.5896,2.5967,2.6165,2.6262,2.6387,2.6386,2.6518,2.6612,2.667,2.6834,2.6916,2.7059,2.7228,2.7309,2.7299,2.7547,2.7488,2.7492,2.7502,2.7598,2.7614,2.7629,2.7438,2.7437,2.7436,0,0,2.5759,2.5881,2.6034,2.6171,2.6228,2.6345,2.6422,2.6474,2.66,2.665,2.6756,2.6877,2.7009,2.7093,2.7222,2.7394,2.7431,2.7464,2.7472,2.7477,2.7491,2.7588,2.7604,2.7432,2.7432,2.7432,0,0,2.5749,2.5931,2.5954,2.6125,2.6242,2.6402,2.6481,2.6513,2.6639,2.6636,2.6733,2.6769,2.693,2.7009,2.6945,2.7215,2.7188,2.7205,2.7156,2.7168,2.7175,2.7152,2.6961,0,0,0,0,0,2.5793,2.5908,2.5927,2.5971,2.6221,2.6391,2.6424,2.6505,2.6483,2.6545,2.6639,2.6664,2.6994,2.694,2.6983,2.7053,2.7382,2.7391,2.7399,2.7377,2.7388,2.7397,0,0,0,0,0,0,2.5811,2.5865,2.5924,2.6087,2.6144,2.6388,2.637,2.6395,2.6479,2.6481,2.6645,2.6669,2.6742,2.6924,2.6961,2.7026,2.6948,2.7385,2.7393,2.74,2.7381,2.7389,2.7397,0,0,0,0,0,2.5826,2.5869,2.6248,2.6086,2.6136,2.6271,2.6366,2.6387,2.6453,2.6598,2.6623,2.6507,2.6742,2.6779,2.6946,2.7006,2.6923,2.6937,2.739,2.7396,2.7402,2.7385,0,0,0,0,0,0,2.5837,2.5891,2.626,2.6278,2.6048,2.6259,2.6295,2.6379,2.6567,2.6592,2.6464,2.6463,2.6743,2.6772,2.68,2.6995,2.6902,2.6916,2.6925,2.7395,2.7399,2.7404,0,0,0,0,0,0,2.5868,2.5905,2.627,2.6217,2.623,2.6247,2.6279,2.6433,2.6568,2.6422,2.6428,2.6461,2.6701,2.6767,2.679,2.7027,2.6886,2.69,2.6909,2.6915,2.7399,2.7402,0,0,0,0,0,0,2.5885,2.5918,2.6213,2.6223,2.6234,2.6444,2.6385,2.6637,2.6521,2.6413,2.6513,2.651,2.6696,2.672,2.6782,2.7009,2.7022,2.6887,2.6896,2.6902,2.6906,0,0,0,0,0,0,0,2.5899,2.5663,2.6152,2.6227,2.6237,2.6446,2.6451,2.6456,2.6521,2.6517,2.6514,2.6511,2.681,2.6824,2.6839,2.6995,0,0,2.6885,2.6892,0,0,0,0,0,0,0,0,2.5651,2.566,2.6153,2.6157,2.616,2.6447,2.6451,2.6455,2.652,2.6517,2.6515,2.6513,2.6814,2.6826,2.6838,0,0,0,0,0,0,0,0,0,0,0,0,0,0,0,2.6153,2.6156,0,2.6447,2.6451,2.6454,2.652,2.6518,2.6515,2.6513,2.6817,2.6827,2.6837,0,0,0,0,0,0,0,0,0,0,0,0,0,0,0,0,0,0,0,0,0,0,0,0,0,0,0,0,0,0,0,0,0,0,0,0,0,0,0,0,0,0,0,0,0,0,0,0,0,0,0,0,0,0,0,0,0,0,0,0,0,0,0,0,0,0,0,0,0]}],[{"header":{"parameterUnit":"kt","parameterCategory":2,"dx":1,"dy":1,"la1":30.253999710083008,"la2":30.299108505249023,"lo1":-89.0895004272461,"lo2":-89.04439544677734,"nx":28,"ny":28,"refTime":"2022-10-06T21:00:00:Z","depth":0,"parameterNumber":2,"parameterNumberName":"V-component_of_WINDS"},"data":[4.0673,4.0659,4.0644,4.062,4.0603,4.0583,4.0571,4.0554,4.0536,4.0508,4.0489,4.0471,4.0445,4.0417,4.0394,4.0386,4.0377,4.0382,4.0371,4.0364,4.0361,4.0359,4.0362,4.0381,4.0381,4.0381,4.0381,4.0381,4.0666,4.0649,4.0633,4.0607,4.0592,4.0578,4.0556,4.0544,4.0526,4.0503,4.0485,4.0458,4.0435,4.0407,4.0381,4.0371,4.0362,4.0365,4.0365,4.036,4.0352,4.0355,4.0372,4.0372,4.0372,4.0372,4.0372,4.0372,4.0649,4.0641,4.0618,4.06,4.0583,4.0565,4.0554,4.0534,4.0516,4.049,4.0475,4.0454,4.0427,4.0388,4.0371,4.0352,4.0346,4.0343,4.0343,4.0342,4.0344,4.0342,4.0347,4.0347,4.0347,4.0347,4.0346,0,4.0632,4.062,4.0604,4.0584,4.057,4.0552,4.0533,4.0525,4.0494,4.0481,4.046,4.0445,4.0414,4.0391,4.0363,4.0346,4.0328,4.0325,4.0323,4.033,4.0339,4.0332,4.0318,4.0325,4.0324,4.0324,4.0324,4.0324,4.0612,4.0606,4.0574,4.0565,4.0551,4.0536,4.0524,4.0497,4.0485,4.0456,4.0449,4.0427,4.0407,4.0374,4.0348,4.0324,4.0315,4.0319,4.0311,4.0318,4.0313,4.0314,4.0312,4.0321,4.0322,4.0322,4.0322,0,4.0602,4.0579,4.0565,4.0534,4.0526,4.052,4.0492,4.0483,4.0464,4.0448,4.0442,4.0412,4.0391,4.0364,4.0334,4.0321,4.0305,4.0297,4.0313,4.031,4.031,4.031,4.0317,4.0316,4.0298,4.0298,4.0298,0,4.0576,4.0568,4.0534,4.0527,4.0517,4.0492,4.0482,4.0465,4.0443,4.043,4.0407,4.0395,4.0363,4.0347,4.0327,4.0309,4.0304,4.0292,4.0287,4.0294,4.0295,4.0286,4.0285,4.0277,4.0277,4.0277,4.0277,0,4.0562,4.0536,4.0524,4.0514,4.0481,4.0475,4.0461,4.0437,4.0425,4.0405,4.0396,4.0374,4.0362,4.0344,4.0319,4.0314,4.0298,4.0286,4.0285,4.0286,4.0283,4.0283,4.0297,4.0277,4.0277,4.0277,4.0277,0,4.0537,4.052,4.0507,4.0478,4.0472,4.0464,4.0442,4.0429,4.0406,4.0393,4.0377,4.0359,4.0344,4.0334,4.0311,4.0312,4.03,4.0288,4.0287,4.0284,4.0274,4.0283,4.03,4.03,4.028,4.028,4.028,0,4.0526,4.0508,4.0487,4.0474,4.0462,4.0438,4.0428,4.0409,4.0392,4.0377,4.0357,4.0341,4.0329,4.032,4.0312,4.0291,4.0289,4.0291,4.0266,4.0266,4.0273,4.0288,4.0297,4.03,4.028,4.028,4.028,0,4.0515,4.0477,4.0477,4.0464,4.0436,4.0426,4.0415,4.0395,4.0386,4.0368,4.0356,4.0334,4.0323,4.0309,4.0292,4.0286,4.0289,4.0275,4.0274,4.0277,4.0279,4.0287,4.0288,4.0279,4.0279,4.0279,4.028,0,4.048,4.0469,4.0467,4.0442,4.043,4.0422,4.0397,4.0388,4.0373,4.0356,4.034,4.0318,4.0296,4.0291,4.0277,4.0271,4.0267,4.0257,4.0245,4.0256,4.0255,4.0255,4.0247,4.0247,4.0246,4.0246,0,0,4.0474,4.0458,4.0436,4.0426,4.0415,4.0391,4.0384,4.037,4.0343,4.0335,4.0329,4.0294,4.0277,4.026,4.0261,4.0253,4.0249,4.0247,4.0251,4.0252,4.0252,4.0252,4.0253,4.0245,4.0245,4.0245,4.0245,0,4.0456,4.0442,4.0437,4.0422,4.0399,4.0382,4.0381,4.0354,4.0343,4.0329,4.0308,4.0295,4.027,4.0253,4.0241,4.0248,4.0233,4.0244,4.0256,4.0248,4.0249,4.025,4.0251,4.0252,4.0244,4.0244,4.0244,0,4.044,4.0421,4.0416,4.0392,4.0377,4.0366,4.0347,4.0337,4.0328,4.0301,4.0288,4.0272,4.0249,4.0237,4.0231,4.0225,4.0219,4.0218,4.022,4.0218,4.0209,4.0211,4.0212,4.0194,4.0194,4.0194,0,0,4.0427,4.0418,4.0389,4.0387,4.0379,4.0353,4.0345,4.033,4.0311,4.0303,4.0283,4.0264,4.0248,4.0239,4.0223,4.0215,4.0207,4.0213,4.0215,4.0217,4.0217,4.0208,4.021,4.0193,4.0193,4.0193,0,0,4.0421,4.0389,4.0378,4.0372,4.0355,4.0327,4.0325,4.0311,4.0295,4.0293,4.0266,4.026,4.0249,4.0235,4.0235,4.0218,4.0207,4.0207,4.0228,4.0231,4.0233,4.0236,4.0213,0,0,0,0,0,4.0391,4.0393,4.0384,4.0379,4.0349,4.0332,4.0328,4.0307,4.0299,4.0298,4.0279,4.0264,4.0229,4.0228,4.0223,4.0224,4.019,4.0191,4.0191,4.0216,4.0219,4.0222,0,0,0,0,0,0,4.0389,4.0383,4.0383,4.0356,4.0349,4.0332,4.0314,4.0308,4.0298,4.0296,4.0268,4.0263,4.0244,4.0229,4.0225,4.0226,4.0214,4.019,4.0191,4.0191,4.0218,4.022,4.0222,0,0,0,0,0,4.0387,4.0382,4.034,4.0356,4.0349,4.0322,4.0314,4.0309,4.0301,4.0272,4.0266,4.0286,4.0244,4.0239,4.0226,4.0228,4.0216,4.0215,4.0191,4.0191,4.0191,4.0219,0,0,0,0,0,0,4.0386,4.0377,4.0338,4.0335,4.0354,4.0322,4.0317,4.0309,4.0277,4.0272,4.0288,4.0287,4.0245,4.0241,4.0237,4.023,4.0219,4.0217,4.0216,4.0191,4.0191,4.0192,0,0,0,0,0,0,4.0379,4.0375,4.0337,4.0335,4.0332,4.0323,4.0318,4.0304,4.0277,4.0295,4.0293,4.0288,4.025,4.0242,4.0239,4.0218,4.022,4.0219,4.0218,4.0217,4.0191,4.0191,0,0,0,0,0,0,4.0377,4.0373,4.0336,4.0334,4.0331,4.0299,4.031,4.028,4.0277,4.0297,4.0276,4.0276,4.0251,4.0248,4.024,4.0221,4.0219,4.022,4.0219,4.0219,4.0218,0,0,0,0,0,0,0,4.0375,4.0406,4.0354,4.0332,4.033,4.031,4.0309,4.0309,4.0277,4.0276,4.0276,4.0276,4.0228,4.0227,4.0225,4.0223,0,0,4.022,4.022,0,0,0,0,0,0,0,0,4.0407,4.0406,4.0354,4.0354,4.0353,4.031,4.0309,4.0309,4.0277,4.0277,4.0276,4.0276,4.0228,4.0227,4.0225,0,0,0,0,0,0,0,0,0,0,0,0,0,0,0,4.0354,4.0354,0,4.031,4.0309,4.0309,4.0277,4.0277,4.0276,4.0276,4.0228,4.0227,4.0225,0,0,0,0,0,0,0,0,0,0,0,0,0,0,0,0,0,0,0,0,0,0,0,0,0,0,0,0,0,0,0,0,0,0,0,0,0,0,0,0,0,0,0,0,0,0,0,0,0,0,0,0,0,0,0,0,0,0,0,0,0,0,0,0,0,0,0,0,0]}]]]